Farmington, MO

7:46 AM CST on December 06, 2019 (GMT -0600)
Farmington Regional

Weather History for KFAM - October, 2019

Change the Weather History Date:

Monday, October 7, 2019

  Actual Average Record
Temperature  
Mean Temperature 60 °F -  
Max Temperature 72 °F 69 °F 86 °F (2007)
Min Temperature 46 °F 46 °F 32 °F (2001)
Degree Days  
Heating Degree Days 4    
Growing Degree Days 10 (Base 50)    
Moisture  
Dew Point 45 °F    
Average Humidity 64    
Maximum Humidity 93    
Minimum Humidity 27    
Precipitation  
Precipitation 0.00 in - - ()
Sea Level Pressure  
Sea Level Pressure 30.26 in    
Wind  
Wind Speed 5 mph (North)    
Max Wind Speed 10 mph    
Max Gust Speed -    
Visibility 10 miles    
Events      
Averages and records for this station are not official NWS values.
T = Trace of Precipitation, MM = Missing Value Source: NWS Daily Summary

Daily Weather History Graph

Daily Weather History Graph

Search for Another Location

Airport or City:

Astronomy

Oct. 07, 2019 Rise Set
Actual Time 7:02 AM CDT 6:36 PM CDT
Civil Twilight 6:36 AM CDT 7:02 PM CDT
Nautical Twilight 6:05 AM CDT 7:32 PM CDT
Astronomical Twilight 5:35 AM CDT 8:03 PM CDT
Moon 3:50 PM CDT (10/7) 1:03 AM CDT (10/7)
Length of Visible Light 12h 26m
Length of Day
11h 33m
Waxing Gibbous, 69% of the Moon is Illuminated
Oct 7
Waxing Gibbous
Oct 13
Full
Oct 21
Last Quarter
Oct 27
New
Nov 4
First Quarter

Hourly Weather History & Observations

Time (CDT) Temp. Dew Point Humidity Pressure Visibility Wind Dir Wind Speed Gust Speed Precip Events Conditions
12:56 AM 57.0 °F 52.0 °F 83% 30.23 in 10.0 mi NNW 4.6 mph - N/A   Overcast
1:56 AM 57.0 °F 52.0 °F 83% 30.25 in 10.0 mi NNW 3.5 mph - N/A   Mostly Cloudy
2:56 AM 55.9 °F 50.0 °F 80% 30.25 in 10.0 mi NNW 4.6 mph - N/A   Partly Cloudy
3:56 AM 53.1 °F 50.0 °F 89% 30.25 in 10.0 mi Calm Calm - N/A   Clear
4:56 AM 54.0 °F 48.0 °F 80% 30.24 in 10.0 mi NNW 9.2 mph - N/A   Clear
5:56 AM 52.0 °F 46.9 °F 83% 30.25 in 10.0 mi NNW 6.9 mph - N/A   Clear
6:56 AM 51.1 °F 46.0 °F 83% 30.26 in 10.0 mi NNW 9.2 mph - N/A   Clear
7:56 AM 52.0 °F 46.9 °F 83% 30.27 in 10.0 mi NNW 8.1 mph - N/A   Clear
8:56 AM 54.0 °F 46.9 °F 77% 30.30 in 10.0 mi NNW 8.1 mph - N/A   Clear
9:56 AM 59.0 °F 48.0 °F 67% 30.30 in 10.0 mi North 9.2 mph - N/A   Clear
10:56 AM 64.9 °F 48.0 °F 54% 30.31 in 10.0 mi Variable 5.8 mph - N/A   Clear
11:56 AM 68.0 °F 44.1 °F 42% 30.30 in 10.0 mi NE 9.2 mph - N/A   Clear
12:56 PM 69.1 °F 39.9 °F 35% 30.28 in 10.0 mi Variable 4.6 mph - N/A   Clear
1:56 PM 70.0 °F 39.0 °F 32% 30.25 in 10.0 mi North 9.2 mph - N/A   Clear
2:56 PM 71.1 °F 39.0 °F 31% 30.23 in 10.0 mi NNW 9.2 mph - N/A   Clear
3:56 PM 71.1 °F 35.1 °F 27% 30.23 in 10.0 mi North 10.4 mph - N/A   Clear
4:56 PM 71.1 °F 37.0 °F 29% 30.22 in 10.0 mi NE 6.9 mph - N/A   Clear
5:56 PM 68.0 °F 39.9 °F 36% 30.23 in 10.0 mi NNE 4.6 mph - N/A   Clear
7:56 PM 54.0 °F 43.0 °F 66% 30.25 in 10.0 mi Calm Calm - N/A   Clear
8:56 PM 53.1 °F 46.0 °F 77% 30.25 in 10.0 mi Calm Calm - N/A   Clear
9:56 PM 50.0 °F 46.0 °F 86% 30.26 in 10.0 mi Calm Calm - N/A   Clear
10:56 PM 46.9 °F 45.0 °F 93% 30.26 in 10.0 mi Calm Calm - N/A   Clear